Regional Weather Roundup
Issued by NWS Lake Charles, LA

Home | Current Version | Previous Version | Text Only | Print | Product List | Glossary On
Versions: 1 2 3 4 5 6 7 8 9 10 11 12 13 14 15 16 17 18 19 20 21 22 23 24 25 26 27 28 29 30 31 32 33 34 35 36 37 38 39 40 41 42 43 44 45 46 47 48 49 50
641
ASUS44 KLCH 290610
RWRLCH
REGIONAL WEATHER ROUNDUP
NATIONAL WEATHER SERVICE LAKE CHARLES LA
100 AM CDT MON MAY 29 2017

Note: "fair" indicates few or no clouds below 12,000 feet with no
significant weather and/or obstructions to visibility.


ACROSS SOUTHEAST TEXAS

CITY           SKY/WX    TMP DP  RH WIND       PRES   REMARKS
BEAUMONT       LGT RAIN  69  66  90 N13       30.04F
BEAUMONT CITY  CLOUDY    71  66  83 MISG      30.07R
ORANGE         LGT RAIN  68  68  99 NE3       30.08F
JASPER         RAIN      69  68  96 CALM      30.10R
$$

ACROSS CENTRAL LOUISIANA

CITY           SKY/WX    TMP DP  RH WIND       PRES   REMARKS
LEESVILLE      RAIN      69  66  93 W7        30.06F
FULLERTON      TSTM      68  67  96 CALM      30.03R
ALEXANDRIA INT RAIN      67  67 100 SE8       30.05R
ESLER FIELD    NOT AVBL
DERIDDER       RAIN     N/A N/A N/A W3        30.09S
OAKDALE        CLOUDY    69  67  92 W3        30.08R
OPELOUSAS      CLOUDY    68  65  90 NE7       30.04S
$$

ACROSS SOUTHWEST AND SOUTH CENTRAL LOUISIANA

CITY           SKY/WX    TMP DP  RH WIND       PRES   REMARKS
SULPHUR        TSTM      70  69  98 N10       30.08F
LAKE CHARLES   TSTM      70  70 100 N12       30.07R FOG
CHENNAULT INT  TSTM      69  67  93 N14G24    30.08R
CAMERON PHI    CLOUDY    70  68  94 NW18G32   30.05R FOG
DEQUINCY       TSTM      67  67  97 CALM      30.08R
JENNINGS       CLOUDY    71  68  90 NW6       30.04R
LAFAYETTE      PTCLDY    71  67  87 N12       30.03F
NEW IBERIA     CLOUDY    73  64  73 N10       30.03S
ABBEVILLE      FAIR      72  70  94 N7        30.03S
PATTERSON      MOCLDY    76  75  97 N6        30.01F
SALT POINT       N/A     78  76  93 VRB3      29.98F
$$

SELECTED SITES ACROSS THE REGION

CITY           SKY/WX    TMP DP  RH WIND       PRES   REMARKS
HOUSTON BUSH   TSTM      71  69  93 E13       30.03F
HOUSTON HOBBY  TSTM      70  69  97 N20       30.03F FOG
GALVESTON      LGT RAIN  76  70  82 N26G40    30.05R
COLLEGE STAT   LGT RAIN  72  70  93 E16G24    29.93F
CONROE         CLOUDY    69  68  96 E6        30.01F
HUNTSVILLE     CLOUDY    71  68  90 E6        29.99F
LUFKIN         TSTM      68  67  96 VRB3      30.08R
SHREVEPORT     CLOUDY    68  66  93 SE5       30.00F
MONROE         CLOUDY    69  65  86 W10       30.04R
NATCHEZ MS     RAIN      66  64  93 SE6       30.06F
BATON ROUGE    CLOUDY    70  65  84 N10       30.06S
N.O. INTL ARPT MOCLDY    79  74  84 CALM      30.02R
SLIDELL        CLOUDY    78  73  84 CALM      30.01S
$$

MARINE REPORTS

STATION/POSITION TIME  SKY/WX   TEMP    WIND        PRES    VSBY
                                AIR SEA DIR/SP/G
                 (UTC)          (F)     (DEG/KT/KT) (MB)    (MI)
BUOY 30 S HIGH I 0450            80 80   50/  6/  8 1016.3
WVE H/P(F/S)=  3/ 6

SEA RIM ST PARK  0500            72     350/ 17/ 21 1018.4R
PORT ARTHUR      0548               81   20/  9/ 13 1018.1F
SABINE PASS N    0548               84  350/ 18/ 23 1019.3F
TEXAS POINT      NOT AVBL
CALCASIEU PASS   0548               82  360/ 23/ 28   N/A
LK CHARLES BEACH 0548               79              1018.9R
MARSH ISLAND     0500            80                   N/A
FRESH WATER LOCK 0548               83  320/  4/  5 1015.6F
AMERADA PASS     0548               77   CALM  /  2 1015.8F
$$




USA.gov is the U.S. government's official web portal to all federal, state and local government web resources and services.